[[{"header":{"parameterUnit":"m.s-1","parameterCategory":1,"la1":30.2991,"la2":30.254,"lo1":-89.0895,"lo2":-89.0444,"dy":0.0017,"dx":0.0017,"nx":28,"ny":28,"refTime":"2025-05-18T03:00:00:Z","depth":0,"parameterNumber":2,"parameterNumberName":"U-component_of_WINDS"},"data":[0,0,0,0,0,0,0,0,0,0,0,0,0,0,0,0,0,0,0,0,0,0,0,0,0,0,0,0,0,0,0,0,0,0,0,0,0,0,0,0,0,0,0,0,0,0,0,0,0,0,0,0,0,0,0,0,0,0,0.5302,0.5304,0,0.5477,0.5479,0.5481,0.5566,0.5566,0.5566,0.5566,0.5748,0.5752,0.5757,0,0,0,0,0,0,0,0,0,0,0,0,0,0.5043,0.5047,0.5302,0.5304,0.5306,0.5477,0.5479,0.5482,0.5566,0.5566,0.5566,0.5566,0.5746,0.5752,0.5758,0,0,0,0,0,0,0,0,0,0,0,0,0,0.518,0.5048,0.5301,0.5369,0.5376,0.5476,0.5479,0.5482,0.5566,0.5566,0.5566,0.5565,0.5744,0.5751,0.5758,0.5805,0,0,0.5781,0.5784,0,0,0,0,0,0,0,0,0.5172,0.519,0.5357,0.5364,0.5373,0.5499,0.5455,0.5591,0.5566,0.5494,0.5566,0.5565,0.5665,0.5679,0.5712,0.5814,0.5822,0.5781,0.5786,0.5789,0.5791,0,0,0,0,0,0,0,0.5163,0.5183,0.5371,0.5359,0.5369,0.5391,0.541,0.5481,0.5578,0.55,0.5507,0.5526,0.567,0.5705,0.5717,0.5824,0.5781,0.5788,0.5792,0.5795,0.5974,0.5975,0,0,0,0,0,0,0.5142,0.5174,0.5366,0.5377,0.527,0.5396,0.5417,0.5459,0.5577,0.5595,0.5526,0.5529,0.5692,0.5708,0.5724,0.5787,0.5789,0.5796,0.58,0.5974,0.5974,0.5975,0,0,0,0,0,0,0.5136,0.5158,0.5359,0.5277,0.5304,0.54,0.5446,0.5463,0.5498,0.5597,0.5615,0.5544,0.5693,0.5713,0.5784,0.5795,0.5799,0.5806,0.5974,0.5974,0.5975,0.5914,0,0,0,0,0,0,0.5128,0.5156,0.5174,0.5277,0.5308,0.5415,0.5447,0.5466,0.551,0.5516,0.5619,0.5635,0.5694,0.5773,0.5792,0.5805,0.5812,0.5973,0.5974,0.5974,0.5915,0.5912,0.5909,0,0,0,0,0,0.5119,0.515,0.5174,0.5197,0.5333,0.5416,0.5434,0.55,0.551,0.553,0.5594,0.5632,0.579,0.578,0.5801,0.5817,0.5973,0.5974,0.5974,0.5916,0.5913,0.5909,0,0,0,0,0,0,0.5046,0.5165,0.5193,0.5258,0.5326,0.543,0.5456,0.5494,0.5561,0.5564,0.5645,0.5667,0.5731,0.5781,0.5767,0.5869,0.5885,0.589,0.5834,0.5831,0.5828,0.5815,0.5818,0,0,0,0,0,0.5037,0.5094,0.5195,0.5243,0.5276,0.536,0.5398,0.5444,0.5518,0.5547,0.5616,0.5687,0.5753,0.5795,0.5861,0.5923,0.5947,0.5944,0.5941,0.5938,0.5942,0.5979,0.5979,0.5977,0.5977,0.5977,0,0,0.502,0.5092,0.5123,0.523,0.5288,0.5346,0.5384,0.5443,0.5487,0.5557,0.5628,0.5681,0.5765,0.5832,0.5865,0.5876,0.5948,0.5939,0.5936,0.5942,0.598,0.598,0.598,0.5978,0.5978,0.5978,0,0,0.5019,0.5079,0.5126,0.5183,0.527,0.5326,0.5337,0.5436,0.5473,0.5546,0.5599,0.5653,0.5765,0.5823,0.5867,0.5888,0.5926,0.5907,0.5892,0.5927,0.5927,0.5928,0.5936,0.5938,0.5911,0.591,0.591,0,0.4987,0.5076,0.5145,0.5202,0.5247,0.5313,0.5361,0.5414,0.5518,0.5548,0.5559,0.57,0.5762,0.5843,0.5848,0.5882,0.5898,0.5896,0.5922,0.5923,0.5924,0.5933,0.5936,0.5908,0.5908,0.5908,0.5909,0,0.5033,0.5093,0.512,0.5219,0.5268,0.532,0.5398,0.544,0.5481,0.5536,0.5609,0.5685,0.5768,0.5791,0.5831,0.5878,0.5882,0.5906,0.5924,0.592,0.593,0.5934,0.5904,0.5905,0.5905,0.5906,0,0,0.499,0.5127,0.5136,0.5181,0.5283,0.5331,0.5386,0.5467,0.5501,0.5571,0.562,0.5712,0.5735,0.5785,0.5834,0.5864,0.5877,0.5885,0.5888,0.5881,0.5933,0.5915,0.5917,0.5902,0.5903,0.5904,0.5926,0,0.5003,0.5105,0.5169,0.5245,0.5303,0.5366,0.5414,0.5482,0.5535,0.5592,0.5651,0.5715,0.574,0.5771,0.5804,0.5868,0.5888,0.5867,0.595,0.5952,0.5927,0.5922,0.5903,0.5921,0.5931,0.5931,0.5932,0,0.5032,0.5099,0.5181,0.5277,0.5303,0.5345,0.5424,0.5478,0.5556,0.5593,0.5648,0.5697,0.5759,0.5771,0.5858,0.5842,0.588,0.5917,0.5919,0.593,0.5941,0.5933,0.5928,0.593,0.5938,0.5938,0.5937,0,0.4993,0.5105,0.5168,0.5205,0.5318,0.5347,0.5395,0.5473,0.5518,0.5587,0.5617,0.5692,0.5734,0.5792,0.586,0.5863,0.594,0.5958,0.5973,0.5971,0.5987,0.5985,0.5987,0.601,0.601,0.601,0.601,0,0.5,0.5048,0.5152,0.5191,0.5247,0.5321,0.5374,0.5428,0.5497,0.5548,0.5608,0.5654,0.5741,0.5799,0.5853,0.5917,0.5935,0.5967,0.5981,0.5962,0.5958,0.5988,0.5989,0.6011,0.601,0.601,0.601,0,0.4966,0.5038,0.5111,0.5212,0.5239,0.5275,0.5362,0.5403,0.5459,0.5523,0.5543,0.5631,0.5702,0.5776,0.5872,0.5909,0.5971,0.599,0.5944,0.5952,0.5963,0.5961,0.5985,0.5992,0.6009,0.6008,0.6008,0,0.4966,0.5004,0.511,0.5148,0.5195,0.5256,0.5302,0.5376,0.5422,0.5514,0.5544,0.5619,0.5684,0.5794,0.5868,0.5942,0.5964,0.5967,0.5975,0.5955,0.5964,0.5961,0.5966,0.5964,0.5963,0.5963,0.5963,0,0.4959,0.4993,0.5056,0.5132,0.5185,0.5248,0.5314,0.5342,0.543,0.5478,0.5551,0.5601,0.5699,0.5774,0.5857,0.5908,0.595,0.5959,0.5967,0.5948,0.592,0.5936,0.5936,0.5959,0.5959,0.5959,0.5959,0.596,0.4943,0.498,0.506,0.5129,0.5186,0.5246,0.5289,0.5351,0.5413,0.5499,0.554,0.5613,0.5692,0.5808,0.5857,0.5917,0.5929,0.5939,0.5942,0.5943,0.5939,0.591,0.5932,0.5932,0.5932,0.5933,0.5933,0,0.4939,0.4994,0.5056,0.5146,0.52,0.5235,0.531,0.5353,0.5417,0.5486,0.5548,0.5633,0.5706,0.5784,0.5862,0.5894,0.5916,0.5912,0.5911,0.5922,0.5924,0.591,0.5894,0.5894,0.5894,0.5894,0.5894,0.5894,0.4943,0.5008,0.5051,0.5146,0.5201,0.5273,0.5312,0.5369,0.5425,0.5516,0.5577,0.5628,0.5701,0.5785,0.5853,0.5875,0.5901,0.5892,0.5919,0.5919,0.5922,0.5925,0.5912,0.5897,0.5897,0.5912,0.5912,0.5912]},{"header":{"parameterUnit":"m.s-1","parameterCategory":1,"la1":30.2991,"la2":30.254,"lo1":-89.0895,"lo2":-89.0444,"dy":0.0017,"dx":0.0017,"nx":28,"ny":28,"refTime":"2025-05-18T03:00:00:Z","depth":0,"parameterNumber":3,"parameterNumberName":"V-component_of_WINDS"},"data":[0,0,0,0,0,0,0,0,0,0,0,0,0,0,0,0,0,0,0,0,0,0,0,0,0,0,0,0,0,0,0,0,0,0,0,0,0,0,0,0,0,0,0,0,0,0,0,0,0,0,0,0,0,0,0,0,0,0,4.3151,4.3151,0,4.3127,4.3127,4.3127,4.3126,4.3127,4.3127,4.3127,4.3097,4.3096,4.3095,0,0,0,0,0,0,0,0,0,0,0,0,0,4.3192,4.3191,4.3151,4.3151,4.3151,4.3127,4.3127,4.3127,4.3126,4.3127,4.3127,4.3127,4.3097,4.3096,4.3095,0,0,0,0,0,0,0,0,0,0,0,0,0,4.3172,4.3191,4.3151,4.3148,4.3147,4.3128,4.3127,4.3127,4.3126,4.3127,4.3127,4.3127,4.3098,4.3096,4.3095,4.3075,0,0,4.309,4.3089,0,0,0,0,0,0,0,0,4.3173,4.317,4.3149,4.3148,4.3147,4.313,4.313,4.3109,4.3126,4.3134,4.3127,4.3128,4.3107,4.3105,4.3099,4.3074,4.3073,4.309,4.3089,4.3088,4.3087,0,0,0,0,0,0,0,4.3174,4.3171,4.3142,4.3148,4.3148,4.3146,4.3144,4.3126,4.3118,4.3133,4.3133,4.3131,4.3107,4.3101,4.3099,4.3072,4.309,4.3088,4.3087,4.3086,4.3029,4.3029,0,0,0,0,0,0,4.3177,4.3172,4.3142,4.3141,4.3162,4.3145,4.3142,4.3135,4.3118,4.3116,4.313,4.3131,4.3103,4.3101,4.3098,4.3074,4.3088,4.3086,4.3085,4.303,4.3029,4.3029,0,0,0,0,0,0,4.3178,4.3174,4.3143,4.3157,4.3153,4.3144,4.3136,4.3135,4.3128,4.3116,4.3114,4.3126,4.3104,4.31,4.3081,4.3073,4.3086,4.3084,4.303,4.303,4.3029,4.3026,0,0,0,0,0,0,4.3179,4.3175,4.3168,4.3157,4.3152,4.3129,4.3135,4.3134,4.3126,4.3127,4.3111,4.3109,4.3104,4.3084,4.308,4.3071,4.3083,4.3031,4.303,4.3029,4.3027,4.3025,4.3024,0,0,0,0,0,4.3181,4.3167,4.3168,4.3164,4.3144,4.3129,4.3126,4.3121,4.3126,4.3118,4.3111,4.311,4.3075,4.3082,4.3077,4.3068,4.3032,4.303,4.3029,4.3028,4.3026,4.3024,0,0,0,0,0,0,4.3176,4.3166,4.3166,4.3149,4.314,4.3129,4.3119,4.3119,4.3107,4.3108,4.3101,4.3097,4.3079,4.3071,4.308,4.3048,4.3053,4.3051,4.3054,4.3052,4.305,4.3052,4.3081,0,0,0,0,0,4.3174,4.3164,4.3154,4.314,4.3136,4.3128,4.3121,4.3119,4.3108,4.3104,4.3094,4.3083,4.3069,4.306,4.3047,4.3026,4.3022,4.3017,4.3016,4.3015,4.3013,4.3001,4.2999,4.3025,4.3025,4.3025,0,0,4.3168,4.3161,4.3154,4.3139,4.3132,4.312,4.3125,4.3112,4.3103,4.3101,4.3084,4.3076,4.3063,4.3043,4.3034,4.3036,4.3005,4.3013,4.3012,4.3011,4.3,4.2997,4.2995,4.3024,4.3024,4.3024,0,0,4.3151,4.3145,4.3132,4.3125,4.3115,4.311,4.3107,4.3096,4.3091,4.3074,4.3073,4.3061,4.3037,4.3028,4.302,4.3,4.2999,4.2996,4.2988,4.2977,4.2975,4.2973,4.2965,4.2963,4.2994,4.2994,4.2994,0,4.3144,4.3128,4.3125,4.3113,4.3106,4.3106,4.3093,4.3085,4.307,4.3065,4.3068,4.3039,4.303,4.3008,4.3003,4.2997,4.2992,4.2997,4.2975,4.2973,4.2972,4.2965,4.2962,4.2993,4.2994,4.2994,4.2994,0,4.312,4.3109,4.31,4.3088,4.3079,4.3066,4.3061,4.3053,4.3051,4.3046,4.3028,4.3017,4.3001,4.2996,4.2993,4.2974,4.2976,4.2977,4.2982,4.2969,4.2962,4.2959,4.2993,4.2993,4.2993,4.2993,0,0,4.3099,4.3087,4.3083,4.3078,4.3066,4.3057,4.3043,4.303,4.3023,4.3013,4.3001,4.2982,4.2983,4.2974,4.297,4.2961,4.2946,4.2963,4.2963,4.296,4.2923,4.2922,4.2919,4.2945,4.2944,4.2944,4.2924,0,4.3081,4.306,4.3057,4.3037,4.3027,4.3027,4.3015,4.3006,4.3001,4.2989,4.2983,4.2969,4.2973,4.2967,4.2958,4.295,4.2938,4.2951,4.2932,4.2932,4.2936,4.2915,4.2914,4.2896,4.2922,4.2921,4.2921,0,4.3057,4.3048,4.3028,4.3018,4.3013,4.3003,4.2991,4.2981,4.297,4.2967,4.2958,4.2955,4.294,4.2947,4.2925,4.2934,4.2926,4.2921,4.292,4.2918,4.2925,4.2912,4.289,4.2887,4.2917,4.2917,4.2917,0,4.3044,4.3026,4.3012,4.3007,4.2996,4.2989,4.2983,4.2973,4.2966,4.2954,4.2949,4.2936,4.2928,4.2917,4.291,4.2916,4.2889,4.2895,4.2885,4.2885,4.2879,4.288,4.2855,4.2875,4.2875,4.2875,4.2875,0,4.3023,4.3011,4.3006,4.2997,4.2983,4.298,4.2965,4.296,4.2951,4.294,4.2938,4.2928,4.292,4.2908,4.2903,4.2886,4.2882,4.2878,4.2877,4.2878,4.2879,4.2873,4.2874,4.2874,4.2874,4.2874,4.2874,0,4.3006,4.3002,4.2987,4.2978,4.2975,4.2965,4.2957,4.2948,4.2943,4.2929,4.2925,4.2917,4.2903,4.2896,4.2877,4.2873,4.2854,4.2854,4.2859,4.2858,4.2849,4.2849,4.2819,4.2815,4.2837,4.2837,4.2837,0,4.2993,4.2984,4.2975,4.2968,4.2963,4.2953,4.2946,4.2942,4.2934,4.2921,4.2913,4.29,4.2888,4.2865,4.2857,4.2842,4.2841,4.2832,4.2839,4.2841,4.2841,4.2842,4.2841,4.283,4.283,4.283,4.283,0,4.2971,4.297,4.2961,4.2951,4.2943,4.2934,4.2926,4.292,4.2915,4.2906,4.2892,4.2884,4.2866,4.2852,4.2838,4.283,4.2828,4.2828,4.2825,4.2826,4.2829,4.2827,4.2855,4.2828,4.2828,4.2828,4.2829,4.2829,4.2956,4.2948,4.294,4.293,4.2923,4.2916,4.2907,4.2902,4.2891,4.2878,4.2875,4.2861,4.285,4.2831,4.2823,4.2811,4.2813,4.2808,4.2807,4.2806,4.2806,4.2832,4.2808,4.2808,4.2808,4.2808,4.2808,0,4.2934,4.2929,4.292,4.2909,4.29,4.2902,4.2893,4.2885,4.2873,4.2864,4.2854,4.2838,4.2824,4.2815,4.2801,4.2793,4.2792,4.2789,4.279,4.2788,4.2805,4.2809,4.279,4.279,4.279,4.279,4.279,4.279,4.2921,4.2908,4.2906,4.2889,4.2884,4.2871,4.2866,4.2858,4.2851,4.2835,4.2824,4.2819,4.2809,4.2795,4.2782,4.2779,4.2774,4.2772,4.2769,4.2785,4.2787,4.2788,4.2792,4.2771,4.2771,4.2753,4.2753,4.2753]}]]